Weather History for KSKA - January, 2014

Change the Weather History Date:

Thursday, January 16, 2014

  Actual Average Record
Temperature  
Mean Temperature 26 °F -  
Max Temperature 28 °F 32 °F 51 °F (2011)
Min Temperature 24 °F 22 °F 5 °F (2007)
Degree Days  
Heating Degree Days 39    
Moisture  
Dew Point 26 °F    
Average Humidity 97    
Maximum Humidity 100    
Minimum Humidity 93    
Precipitation  
Precipitation 0.00 in - - ()
Sea Level Pressure  
Sea Level Pressure 30.47 in    
Wind  
Wind Speed 4 mph (NE)    
Max Wind Speed 7 mph    
Max Gust Speed -    
Averages and records for this station are not official NWS values.
T = Trace of Precipitation, MM = Missing Value Source: NWS Daily Summary

Daily Weather History Graph

Daily Weather History Graph

Search for Another Location

Airport or City:

Trip Planner

Search our weather history database for the weather conditions in past years. The results will help you decide how hot, cold, wet, or windy it might be!

Date:

Astronomy

Jan. 16, 2014 Rise Set
Actual Time 7:33 AM PST 4:27 PM PST
Civil Twilight 6:58 AM PST 5:02 PM PST
Nautical Twilight 6:20 AM PST 5:40 PM PST
Astronomical Twilight 5:43 AM PST 6:17 PM PST
Moon 5:31 PM PST (1/16) 7:23 AM PST (1/16)
Length of Visible Light 10h 03m
Length of Day
8h 54m
Full, 100% of the Moon is Illuminated
Jan 16
Full
Jan 23
Last Quarter
Jan 30
New
Feb 6
First Quarter
Feb 14
Full

Hourly Weather History & Observations

Time (PST) Temp. Windchill Dew Point Humidity Pressure Visibility Wind Dir Wind Speed Gust Speed Precip Events Conditions
12:02 AM 24.8 °F 20.5 °F 23.0 °F 93% 30.50 in 0.2 mi NNE 3.5 mph - N/A Fog Light Freezing Fog
12:05 AM 24.8 °F 20.5 °F 23.0 °F 93% 30.49 in 0.2 mi NE 3.5 mph - N/A Fog Light Freezing Fog
12:06 AM 24.8 °F 19.1 °F 23.0 °F 93% 30.49 in 0.2 mi NE 4.6 mph - N/A Fog Light Freezing Fog
12:08 AM 24.8 °F 19.1 °F 23.0 °F 93% 30.49 in 0.2 mi NNE 4.6 mph - N/A Fog Light Freezing Fog
12:13 AM 24.8 °F 19.1 °F 23.0 °F 93% 30.49 in 0.2 mi NNE 4.6 mph - N/A Fog Light Freezing Fog
12:19 AM 24.8 °F 20.5 °F 24.8 °F 100% 30.49 in 0.5 mi NNE 3.5 mph - N/A Fog Light Freezing Fog
12:49 AM 26.6 °F - 24.8 °F 93% 30.50 in 0.2 mi NE 2.3 mph - N/A Fog Light Freezing Fog
12:58 AM 26.1 °F - 25.3 °F 97% 30.56 in 0.2 mi North 1.2 mph - 0.00 in Fog Light Freezing Fog
1:01 AM 26.6 °F - 24.8 °F 93% 30.50 in 0.2 mi NNE 1.2 mph - N/A Fog Light Freezing Fog
1:06 AM 26.6 °F - 24.8 °F 93% 30.50 in 0.2 mi NNE 1.2 mph - N/A Fog Light Freezing Fog
1:18 AM 26.6 °F - 24.8 °F 93% 30.50 in 0.2 mi North 1.2 mph - N/A Fog Light Freezing Fog
1:30 AM 26.6 °F 22.6 °F 24.8 °F 93% 30.50 in 0.2 mi NNE 3.5 mph - N/A Fog Light Freezing Fog
1:52 AM 24.8 °F 20.5 °F 24.8 °F 100% 30.50 in 0.5 mi NE 3.5 mph - N/A Fog Light Freezing Fog
1:57 AM 24.8 °F - 24.8 °F 100% 30.50 in 0.5 mi NNE 2.3 mph - N/A Fog Light Freezing Fog
1:58 AM 25.3 °F - 24.4 °F 96% 30.58 in 0.5 mi NNE 2.3 mph - N/A Fog Light Freezing Fog
2:10 AM 24.8 °F - 24.8 °F 100% 30.50 in 0.5 mi NNE 2.3 mph - N/A Fog Light Freezing Fog
2:16 AM 24.8 °F 20.5 °F 24.8 °F 100% 30.50 in 0.5 mi NE 3.5 mph - N/A Fog Light Freezing Fog
2:20 AM 24.8 °F 20.5 °F 24.8 °F 100% 30.51 in 0.2 mi NE 3.5 mph - N/A Fog Light Freezing Fog
2:26 AM 24.8 °F 19.1 °F 24.8 °F 100% 30.50 in 0.5 mi NE 4.6 mph - N/A Fog Light Freezing Fog
2:46 AM 24.8 °F 17.9 °F 24.8 °F 100% 30.50 in 0.2 mi NE 5.8 mph - N/A Fog Light Freezing Fog
2:55 AM 24.8 °F 17.9 °F 24.8 °F 100% 30.50 in 0.2 mi NE 5.8 mph - N/A Fog Light Freezing Fog
2:58 AM 25.7 °F 20.1 °F 25.0 °F 97% 30.58 in 0.2 mi NE 4.6 mph - 0.00 in Fog Light Freezing Fog
3:04 AM 26.6 °F 21.2 °F 24.8 °F 93% 30.50 in 0.2 mi NNE 4.6 mph - N/A Fog Light Freezing Fog
3:05 AM 26.6 °F 21.2 °F 24.8 °F 93% 30.50 in 0.2 mi NE 4.6 mph - N/A Fog Light Freezing Fog
3:34 AM 26.6 °F - 24.8 °F 93% 30.50 in 0.2 mi North 2.3 mph - N/A Fog Light Freezing Fog
3:51 AM 26.6 °F 21.2 °F 24.8 °F 93% 30.50 in 0.2 mi NNE 4.6 mph - N/A Fog Light Freezing Fog
3:53 AM 26.6 °F 22.6 °F 24.8 °F 93% 30.50 in 0.2 mi NNE 3.5 mph - N/A Fog Light Freezing Fog
3:58 AM 26.2 °F 22.1 °F 25.5 °F 97% 30.58 in 0.2 mi NNE 3.5 mph - 0.00 in Fog Light Freezing Fog
4:04 AM 26.6 °F - 24.8 °F 93% 30.51 in 0.2 mi NE 2.3 mph - N/A Fog Light Freezing Fog
4:10 AM 26.6 °F 22.6 °F 24.8 °F 93% 30.51 in 0.2 mi NE 3.5 mph - N/A Fog Light Freezing Fog
4:20 AM 26.6 °F 21.2 °F 26.6 °F 100% 30.50 in 0.2 mi ENE 4.6 mph - N/A Fog Light Freezing Fog
4:21 AM 26.6 °F 21.2 °F 26.6 °F 100% 30.50 in 0.2 mi ENE 4.6 mph - N/A Fog Light Freezing Fog
4:38 AM 26.6 °F 20.0 °F 26.6 °F 100% 30.50 in 0.2 mi ENE 5.8 mph - N/A Fog Light Freezing Fog
4:48 AM 26.6 °F 20.0 °F 26.6 °F 100% 30.50 in 0.2 mi NE 5.8 mph - N/A Fog Light Freezing Fog
4:53 AM 26.6 °F 19.1 °F 26.6 °F 100% 30.50 in 0.2 mi NE 6.9 mph - N/A Fog Light Freezing Fog
4:58 AM 27.0 °F 20.5 °F 26.2 °F 97% 30.58 in 0.2 mi NE 5.8 mph - 0.00 in Fog Light Freezing Fog
5:01 AM 26.6 °F 20.0 °F 26.6 °F 100% 30.50 in 0.2 mi ENE 5.8 mph - N/A Fog Light Freezing Fog
5:08 AM 26.6 °F 20.0 °F 26.6 °F 100% 30.50 in 0.2 mi NE 5.8 mph - N/A Fog Light Freezing Fog
5:13 AM 26.6 °F 20.0 °F 26.6 °F 100% 30.50 in 0.2 mi NE 5.8 mph - N/A Fog Light Freezing Fog
5:21 AM 26.6 °F 20.0 °F 26.6 °F 100% 30.50 in 0.2 mi ENE 5.8 mph - N/A Fog Light Freezing Fog
5:23 AM 26.6 °F 20.0 °F 26.6 °F 100% 30.50 in 0.2 mi NE 5.8 mph - N/A Fog Light Freezing Fog
5:27 AM 26.6 °F 20.0 °F 26.6 °F 100% 30.50 in 0.2 mi NE 5.8 mph - N/A Fog Light Freezing Fog
5:29 AM 26.6 °F 21.2 °F 26.6 °F 100% 30.50 in 0.2 mi NE 4.6 mph - N/A Fog Light Freezing Fog
5:42 AM 26.6 °F 21.2 °F 26.6 °F 100% 30.50 in 0.2 mi ENE 4.6 mph - N/A Fog Light Freezing Fog
5:58 AM 26.6 °F 21.2 °F 25.9 °F 97% 30.59 in 0.2 mi ENE 4.6 mph - 0.00 in Fog Light Freezing Fog
6:00 AM 26.6 °F 21.2 °F 24.8 °F 93% 30.50 in 0.2 mi ENE 4.6 mph - N/A Fog Light Freezing Fog
6:03 AM 26.6 °F 21.2 °F 24.8 °F 93% 30.50 in 0.2 mi ENE 4.6 mph - N/A Fog Light Freezing Fog
6:25 AM 26.6 °F 21.2 °F 24.8 °F 93% 30.50 in 0.2 mi NE 4.6 mph - N/A Fog Light Freezing Fog
6:44 AM 24.8 °F 19.1 °F 24.8 °F 100% 30.50 in 0.2 mi NE 4.6 mph - N/A Fog Light Freezing Fog
6:48 AM 26.6 °F 21.2 °F 24.8 °F 93% 30.50 in 0.2 mi NE 4.6 mph - N/A Fog Light Freezing Fog
6:51 AM 26.6 °F 21.2 °F 24.8 °F 93% 30.50 in 0.2 mi NE 4.6 mph - N/A Fog Light Freezing Fog
6:56 AM 26.6 °F 20.0 °F 24.8 °F 93% 30.50 in 0.2 mi NE 5.8 mph - N/A Fog Light Freezing Fog
6:58 AM 26.1 °F 19.4 °F 25.2 °F 96% 30.59 in 0.2 mi NNE 5.8 mph - 0.00 in Fog Light Freezing Fog
7:00 AM 26.6 °F 19.1 °F 24.8 °F 93% 30.50 in 0.2 mi NNE 6.9 mph - N/A Fog Light Freezing Fog
7:21 AM 26.6 °F 20.0 °F 24.8 °F 93% 30.50 in 0.2 mi ENE 5.8 mph - N/A Fog Light Freezing Fog
7:22 AM 26.6 °F 21.2 °F 24.8 °F 93% 30.50 in 0.2 mi ENE 4.6 mph - N/A Fog Light Freezing Fog
7:28 AM 26.6 °F 22.6 °F 24.8 °F 93% 30.51 in 0.2 mi ENE 3.5 mph - N/A Fog Light Freezing Fog
7:33 AM 26.6 °F 22.6 °F 24.8 °F 93% 30.51 in 0.2 mi NNE 3.5 mph - N/A Fog Light Freezing Fog
7:47 AM 26.6 °F 21.2 °F 24.8 °F 93% 30.51 in 0.2 mi ENE 4.6 mph - N/A Fog Light Freezing Fog
7:53 AM 26.6 °F 21.2 °F 24.8 °F 93% 30.51 in 0.2 mi NE 4.6 mph - N/A Fog Light Freezing Fog
7:54 AM 26.6 °F 21.2 °F 24.8 °F 93% 30.51 in 0.2 mi NE 4.6 mph - N/A Fog Light Freezing Fog
7:58 AM 26.6 °F 21.2 °F 24.8 °F 93% 30.61 in 0.2 mi ENE 4.6 mph - 0.00 in Fog Light Freezing Fog
8:09 AM 24.8 °F 20.5 °F 24.8 °F 100% 30.51 in 0.2 mi NE 3.5 mph - N/A Fog Light Freezing Fog
8:58 AM 25.0 °F 19.3 °F 24.1 °F 96% 30.62 in 0.2 mi NNE 4.6 mph - 0.00 in Fog Light Freezing Fog
9:06 AM 24.8 °F 19.1 °F 24.8 °F 100% 30.52 in 0.2 mi ENE 4.6 mph - N/A Fog Light Freezing Fog
9:18 AM 24.8 °F 19.1 °F 24.8 °F 100% 30.52 in 0.2 mi NE 4.6 mph - N/A Fog Light Freezing Fog
9:50 AM 24.8 °F - 24.8 °F 100% 30.52 in 0.2 mi NE 2.3 mph - N/A Fog Light Freezing Fog
9:53 AM 24.8 °F - 24.8 °F 100% 30.52 in 0.2 mi NE 2.3 mph - N/A Fog Light Freezing Fog
9:58 AM 25.7 °F - 25.0 °F 97% 30.62 in 0.2 mi ENE 2.3 mph - 0.00 in Fog Light Freezing Fog
10:09 AM 26.6 °F 22.6 °F 24.8 °F 93% 30.52 in 0.2 mi NE 3.5 mph - N/A Fog Light Freezing Fog
10:14 AM 26.6 °F 21.2 °F 24.8 °F 93% 30.52 in 0.2 mi NE 4.6 mph - N/A Fog Light Freezing Fog
10:16 AM 26.6 °F 21.2 °F 24.8 °F 93% 30.52 in 0.2 mi NE 4.6 mph - N/A Fog Light Freezing Fog
10:18 AM 26.6 °F 21.2 °F 24.8 °F 93% 30.52 in 0.2 mi NE 4.6 mph - N/A Fog Light Freezing Fog
10:25 AM 26.6 °F 20.0 °F 24.8 °F 93% 30.53 in 0.2 mi NE 5.8 mph - N/A Fog Light Freezing Fog
10:28 AM 26.6 °F 20.0 °F 24.8 °F 93% 30.52 in 0.2 mi NE 5.8 mph - N/A Fog Light Freezing Fog
10:32 AM 26.6 °F 20.0 °F 24.8 °F 93% 30.52 in 0.2 mi NE 5.8 mph - N/A Fog Light Freezing Fog
10:34 AM 26.6 °F 20.0 °F 26.6 °F 100% 30.52 in 0.2 mi NE 5.8 mph - N/A Fog Light Freezing Fog
10:36 AM 26.6 °F 19.1 °F 26.6 °F 100% 30.52 in 0.2 mi ENE 6.9 mph - N/A Fog Light Freezing Fog
10:58 AM 27.0 °F 19.5 °F 26.2 °F 97% 30.61 in 0.2 mi ENE 6.9 mph - 0.00 in Fog Light Freezing Fog
11:10 AM 26.6 °F 21.2 °F 26.6 °F 100% 30.51 in 0.2 mi ENE 4.6 mph - N/A Fog Light Freezing Fog
11:21 AM 26.6 °F 21.2 °F 26.6 °F 100% 30.50 in 0.2 mi East 4.6 mph - N/A Fog Light Freezing Fog
11:35 AM 26.6 °F 21.2 °F 26.6 °F 100% 30.50 in 0.2 mi ENE 4.6 mph - N/A Fog Light Freezing Fog
11:58 AM 28.0 °F 22.8 °F 27.5 °F 98% 30.59 in 0.2 mi NE 4.6 mph - 0.00 in Fog Light Freezing Fog
12:18 PM 28.4 °F 23.3 °F 28.4 °F 100% 30.48 in 0.2 mi ENE 4.6 mph - N/A Fog Light Freezing Fog
12:28 PM 28.4 °F 23.3 °F 28.4 °F 100% 30.48 in 0.2 mi NE 4.6 mph - N/A Fog Light Freezing Fog
12:58 PM 28.2 °F 24.4 °F 27.7 °F 98% 30.56 in 0.2 mi NE 3.5 mph - 0.00 in Fog Light Freezing Fog
1:09 PM 28.4 °F 23.3 °F 28.4 °F 100% 30.46 in 0.2 mi ENE 4.6 mph - N/A Fog Light Freezing Fog
1:55 PM 28.6 °F - 28.2 °F 99% 30.55 in 0.2 mi NNE 2.3 mph - N/A Fog Light Freezing Fog
2:03 PM 28.4 °F - 28.4 °F 100% 30.45 in 0.2 mi NNE 2.3 mph - N/A Fog Light Freezing Fog
2:13 PM 28.4 °F 24.6 °F 28.4 °F 100% 30.45 in 0.2 mi NE 3.5 mph - N/A Fog Light Freezing Fog
2:17 PM 28.4 °F - 28.4 °F 100% 30.45 in 0.2 mi NE 2.3 mph - N/A Fog Light Freezing Fog
2:19 PM 28.4 °F - 28.4 °F 100% 30.45 in 0.2 mi NE 2.3 mph - N/A Fog Light Freezing Fog
2:32 PM 28.4 °F 24.6 °F 28.4 °F 100% 30.45 in 0.2 mi NE 3.5 mph - N/A Fog Light Freezing Fog
2:56 PM 28.4 °F - 28.4 °F 100% 30.45 in 0.2 mi ENE 2.3 mph - N/A Fog Light Freezing Fog
2:57 PM 28.4 °F - 28.4 °F 100% 30.45 in 0.2 mi ENE 2.3 mph - N/A Fog Light Freezing Fog
2:58 PM 28.8 °F 25.0 °F 28.2 °F 98% 30.55 in 0.2 mi ENE 3.5 mph - N/A Fog Light Freezing Fog
3:00 PM 28.4 °F 24.6 °F 28.4 °F 100% 30.45 in 0.2 mi ENE 3.5 mph - N/A Fog Light Freezing Fog
3:10 PM 28.4 °F - 28.4 °F 100% 30.45 in 0.2 mi ENE 2.3 mph - N/A Fog Light Freezing Fog
3:14 PM 28.4 °F - 28.4 °F 100% 30.45 in 0.2 mi NE 2.3 mph - N/A Fog Light Freezing Fog
3:21 PM 28.4 °F - 28.4 °F 100% 30.44 in 0.2 mi ENE 2.3 mph - N/A Fog Light Freezing Fog
3:25 PM 28.4 °F 24.6 °F 28.4 °F 100% 30.44 in 0.2 mi ENE 3.5 mph - N/A Fog Light Freezing Fog
3:27 PM 28.4 °F - 28.4 °F 100% 30.44 in 0.2 mi NE 2.3 mph - N/A Fog Light Freezing Fog
3:31 PM 28.4 °F - 28.4 °F 100% 30.44 in 0.2 mi NNE 2.3 mph - N/A Fog Light Freezing Fog
3:42 PM 28.4 °F - 28.4 °F 100% 30.44 in 0.2 mi NE 2.3 mph - N/A Fog Light Freezing Fog
3:46 PM 28.4 °F 24.6 °F 28.4 °F 100% 30.44 in 0.2 mi NNE 3.5 mph - N/A Fog Light Freezing Fog
3:49 PM 28.4 °F 24.6 °F 28.4 °F 100% 30.44 in 0.2 mi NE 3.5 mph - N/A Fog Light Freezing Fog
3:52 PM 28.4 °F 24.6 °F 28.4 °F 100% 30.44 in 0.2 mi NE 3.5 mph - N/A Fog Light Freezing Fog
3:54 PM 28.4 °F 24.6 °F 28.4 °F 100% 30.44 in 0.2 mi NE 3.5 mph - N/A Fog Light Freezing Fog
3:58 PM 28.0 °F 24.2 °F 27.5 °F 98% 30.54 in 0.2 mi NE 3.5 mph - 0.00 in Fog Light Freezing Fog
4:09 PM 28.4 °F 24.6 °F 26.6 °F 93% 30.43 in 0.2 mi NE 3.5 mph - N/A Fog Light Freezing Fog
4:10 PM 28.4 °F 24.6 °F 26.6 °F 93% 30.43 in 0.2 mi NE 3.5 mph - N/A Fog Light Freezing Fog
4:21 PM 28.4 °F 23.3 °F 26.6 °F 93% 30.44 in 0.2 mi ENE 4.6 mph - N/A Fog Light Freezing Fog
4:33 PM 26.6 °F 21.2 °F 26.6 °F 100% 30.43 in 0.2 mi NE 4.6 mph - N/A Fog Light Freezing Fog
4:36 PM 26.6 °F 21.2 °F 26.6 °F 100% 30.43 in 0.2 mi NE 4.6 mph - N/A Fog Light Freezing Fog
4:42 PM 26.6 °F 21.2 °F 26.6 °F 100% 30.43 in 0.2 mi NE 4.6 mph - N/A Fog Light Freezing Fog
4:45 PM 26.6 °F 22.6 °F 26.6 °F 100% 30.44 in 0.2 mi NE 3.5 mph - N/A Fog Light Freezing Fog
4:47 PM 26.6 °F 21.2 °F 26.6 °F 100% 30.43 in 0.2 mi NE 4.6 mph - N/A Fog Light Freezing Fog
4:51 PM 26.6 °F 21.2 °F 26.6 °F 100% 30.43 in 0.2 mi NE 4.6 mph - N/A Fog Light Freezing Fog
4:52 PM 26.6 °F 21.2 °F 26.6 °F 100% 30.43 in 0.2 mi NE 4.6 mph - N/A Fog Light Freezing Fog
4:56 PM 26.6 °F 21.2 °F 26.6 °F 100% 30.43 in 0.5 mi NE 4.6 mph - N/A Fog Light Freezing Fog
4:58 PM 26.6 °F 22.6 °F 26.6 °F 100% 30.53 in 0.5 mi ENE 3.5 mph - 0.00 in Fog Light Freezing Fog
5:02 PM 26.6 °F 22.6 °F 26.6 °F 100% 30.43 in 0.2 mi ENE 3.5 mph - N/A Fog Light Freezing Fog
5:29 PM 26.6 °F 22.6 °F 26.6 °F 100% 30.43 in 0.2 mi NNE 3.5 mph - N/A Fog Light Freezing Fog
5:31 PM 26.6 °F - 26.6 °F 100% 30.43 in 0.5 mi NE 2.3 mph - N/A Fog Light Freezing Fog
5:53 PM 26.6 °F - 24.8 °F 93% 30.43 in 0.2 mi NNE 2.3 mph - N/A Fog Light Freezing Fog
5:55 PM 26.6 °F - 24.8 °F 93% 30.43 in 0.2 mi NNE 2.3 mph - N/A Fog Light Freezing Fog
5:58 PM 26.2 °F - 25.5 °F 97% 30.52 in 0.2 mi NNE 2.3 mph - N/A Fog Light Freezing Fog
5:59 PM 26.6 °F - 24.8 °F 93% 30.42 in 0.2 mi NNE 2.3 mph - N/A Fog Light Freezing Fog
6:10 PM 26.6 °F - 24.8 °F 93% 30.41 in 0.2 mi ENE 2.3 mph - N/A Fog Light Freezing Fog
6:13 PM 26.6 °F - 24.8 °F 93% 30.41 in 0.2 mi NNE 2.3 mph - N/A Fog Light Freezing Fog
6:21 PM 26.6 °F - 24.8 °F 93% 30.41 in 0.2 mi NNE 2.3 mph - N/A Fog Light Freezing Fog
6:34 PM 26.6 °F - 24.8 °F 93% 30.41 in 0.2 mi NNE 2.3 mph - N/A Fog Light Freezing Fog
6:40 PM 26.6 °F - 24.8 °F 93% 30.41 in 0.2 mi NNE 2.3 mph - N/A Fog Light Freezing Fog
6:49 PM 26.6 °F - 24.8 °F 93% 30.41 in 0.2 mi NNE 2.3 mph - N/A Fog Light Freezing Fog
6:53 PM 24.8 °F - 24.8 °F 100% 30.41 in 0.5 mi North 2.3 mph - N/A Fog Light Freezing Fog
6:58 PM 25.7 °F - 25.0 °F 97% 30.51 in 0.5 mi NNE 2.3 mph - N/A Fog Light Freezing Fog
7:06 PM 24.8 °F - 24.8 °F 100% 30.40 in 0.2 mi NE 2.3 mph - N/A Fog Light Freezing Fog
7:07 PM 24.8 °F - 24.8 °F 100% 30.40 in 0.2 mi NE 2.3 mph - N/A Fog Light Freezing Fog
7:12 PM 24.8 °F - 24.8 °F 100% 30.41 in 0.2 mi NNE 2.3 mph - N/A Fog Light Freezing Fog
7:13 PM 24.8 °F - 24.8 °F 100% 30.40 in 0.2 mi NNE 2.3 mph - N/A Fog Light Freezing Fog
7:19 PM 24.8 °F - 24.8 °F 100% 30.41 in 0.2 mi NE 2.3 mph - N/A Fog Light Freezing Fog
7:22 PM 24.8 °F 20.5 °F 24.8 °F 100% 30.41 in 0.2 mi NNE 3.5 mph - N/A Fog Light Freezing Fog
7:33 PM 24.8 °F 20.5 °F 24.8 °F 100% 30.41 in 0.2 mi NNE 3.5 mph - N/A Fog Light Freezing Fog
7:35 PM 24.8 °F 20.5 °F 24.8 °F 100% 30.41 in 0.5 mi North 3.5 mph - N/A Fog Light Freezing Fog
7:46 PM 24.8 °F 20.5 °F 24.8 °F 100% 30.41 in 0.5 mi North 3.5 mph - N/A Fog Light Freezing Fog
7:48 PM 24.8 °F 20.5 °F 24.8 °F 100% 30.41 in 0.2 mi North 3.5 mph - N/A Fog Light Freezing Fog
7:50 PM 24.8 °F 20.5 °F 24.8 °F 100% 30.41 in 0.2 mi North 3.5 mph - N/A Fog Light Freezing Fog
7:56 PM 24.8 °F - 24.8 °F 100% 30.41 in 0.2 mi NE 2.3 mph - N/A Fog Light Freezing Fog
7:58 PM 25.7 °F - 25.0 °F 97% 30.51 in 0.2 mi NE 2.3 mph - 0.00 in Fog Light Freezing Fog
7:59 PM 24.8 °F 20.5 °F 24.8 °F 100% 30.41 in 0.2 mi NE 3.5 mph - N/A Fog Light Freezing Fog
8:01 PM 24.8 °F 20.5 °F 24.8 °F 100% 30.41 in 0.5 mi NNE 3.5 mph - N/A Fog Light Freezing Fog
8:15 PM 24.8 °F - 24.8 °F 100% 30.41 in 0.2 mi NE 2.3 mph - N/A Fog Light Freezing Fog
8:16 PM 24.8 °F - 24.8 °F 100% 30.41 in 0.2 mi NE 2.3 mph - N/A Fog Light Freezing Fog
8:29 PM 24.8 °F - 24.8 °F 100% 30.40 in 0.2 mi NE 2.3 mph - N/A Fog Light Freezing Fog
8:48 PM 26.6 °F 22.6 °F 24.8 °F 93% 30.40 in 0.2 mi NE 3.5 mph - N/A Fog Light Freezing Fog
8:57 PM 26.6 °F 22.6 °F 24.8 °F 93% 30.40 in 0.2 mi NE 3.5 mph - N/A Fog Light Freezing Fog
8:58 PM 26.1 °F 21.9 °F 25.3 °F 97% 30.50 in 0.2 mi NE 3.5 mph - 0.00 in Fog Light Freezing Fog
9:07 PM 26.6 °F 22.6 °F 24.8 °F 93% 30.39 in 0.2 mi NE 3.5 mph - N/A Fog Light Freezing Fog
9:25 PM 26.6 °F 22.6 °F 24.8 °F 93% 30.39 in 0.2 mi NE 3.5 mph - N/A Fog Light Freezing Fog
9:34 PM 26.6 °F 22.6 °F 24.8 °F 93% 30.39 in 0.2 mi NE 3.5 mph - N/A Fog Light Freezing Fog
9:36 PM 26.6 °F 22.6 °F 24.8 °F 93% 30.39 in 0.2 mi NE 3.5 mph - N/A Fog Light Freezing Fog
9:52 PM 26.6 °F 22.6 °F 24.8 °F 93% 30.38 in 0.2 mi NE 3.5 mph - N/A Fog Light Freezing Fog
9:58 PM 26.4 °F 22.4 °F 25.7 °F 97% 30.48 in 0.2 mi NE 3.5 mph - 0.00 in Fog Light Freezing Fog
10:03 PM 26.6 °F - 24.8 °F 93% 30.38 in 0.2 mi NE 2.3 mph - N/A Fog Light Freezing Fog
10:17 PM 26.6 °F - 24.8 °F 93% 30.38 in 0.2 mi NE 2.3 mph - N/A Fog Light Freezing Fog
10:30 PM 26.6 °F 22.6 °F 24.8 °F 93% 30.38 in 0.2 mi NNE 3.5 mph - N/A Fog Light Freezing Fog
10:53 PM 26.6 °F 22.6 °F 24.8 °F 93% 30.39 in 0.2 mi North 3.5 mph - N/A Fog Light Freezing Fog
10:58 PM 26.1 °F 21.9 °F 25.3 °F 97% 30.49 in 0.2 mi NNE 3.5 mph - N/A Fog Light Freezing Fog
11:02 PM 26.6 °F 22.6 °F 24.8 °F 93% 30.39 in 0.2 mi NE 3.5 mph - N/A Fog Light Freezing Fog
11:20 PM 26.6 °F 21.2 °F 24.8 °F 93% 30.38 in 0.2 mi NE 4.6 mph - N/A Fog Light Freezing Fog
11:21 PM 26.6 °F 21.2 °F 24.8 °F 93% 30.38 in 0.2 mi NE 4.6 mph - N/A Fog Light Freezing Fog
11:29 PM 26.6 °F 21.2 °F 24.8 °F 93% 30.38 in 0.2 mi NE 4.6 mph - N/A Fog Light Freezing Fog
11:35 PM 26.6 °F 21.2 °F 24.8 °F 93% 30.38 in 0.2 mi NE 4.6 mph - N/A Fog Light Freezing Fog
11:48 PM 26.6 °F 22.6 °F 24.8 °F 93% 30.38 in 0.2 mi NE 3.5 mph - N/A Fog Light Freezing Fog
11:58 PM 26.1 °F 21.9 °F 25.3 °F 97% 30.46 in 0.2 mi ENE 3.5 mph - 0.00 in Fog Light Freezing Fog
11:59 PM 26.6 °F 22.6 °F 24.8 °F 93% 30.37 in 0.2 mi ENE 3.5 mph - N/A Fog Light Freezing Fog